Terminal Aerodrome Forecast
Issued by NWS

Home | Current Version | Previous Version | Text Only | Print | Product List | Glossary On
Versions: 1 2 3 4 5 6 7 8 9 10 11 12 13 14 15 16 17 18 19 20 21 22 23 24 25 26 27 28 29 30
679
FTAK31 PANC 101133
TAFADL
TAF
PADL 101133Z 1012/1112 36015KT P6SM BKN070 BKN150 WS020/06035KT
      TEMPO 1012/1016 36015G22KT=

USA.gov is the U.S. government's official web portal to all federal, state and local government web resources and services.